Find Starlink 32431

NORAD ID: 61256 Int'l Des: 2024-175 Owner: SPXS Country: US Constellation: starlink operational
LEOCIRCULAR

Live Position

Loading 3D Globe...

About Starlink 32431

Description loading...

Upcoming Passes

Passes for default location (London). Set your location on the main map for personalized predictions.

Altitude History

Loading altitude history...

Two-Line Element Set

1 61256U 24175P 26125.77520321 .00000467 00000-0 27913-4 0 9995
2 61256 53.1615 288.8823 0001276 87.8746 272.2400 15.30191045 90193
Epoch: May 5, 2026 • Age: 17 hours

Current Status

Altitude 477.8 km
Velocity 7.63 km/s
Sub-Earth Point -8.54°S, 122.24°W
Launch Date Sep 25, 2024
Age 1.6 years
Type internet

Technical Details

Classification Payload
Mass 730.00 kg
Dry Mass 700.00 kg
Total Mass 730.00 kg
Length 0.30 m
Diameter 4.10 m
Span 29.00 m
Shape Box + pan
Manufacturer SPXS
Bus Type Starlink V2M
Phase Status In Orbit
Owner/State SPXS/US

Most Searched